DW0275 Weather Reports


time (UTC)temp
C
wind
direction
speed
KPH
gust
KPH
rain 1hr
cm
rain 24hr
cm
rain mn
cm
humidity
%
barometer
mb
20260507090910 21 99 0.0 0.0 0.00 0.00 0.00 89 1015.6
20260507090322 21 99 0.0 0.0 0.00 0.00 0.00 88 1015.5
20260507085835 21 99 0.0 0.0 0.00 0.00 0.00 88 1015.6
20260507085330 21 99 0.0 0.0 0.00 0.00 0.00 88 1015.5
20260507084840 21 99 0.0 0.0 0.00 0.00 0.00 88 1015.7
20260507084405 21 99 0.0 0.0 0.00 0.00 0.00 88 1015.5
20260507083833 21 99 0.0 0.0 0.00 0.00 0.00 88 1015.5
20260507083325 21 99 0.0 0.0 0.00 0.00 0.00 89 1015.5
20260507082834 21 99 0.0 0.0 0.00 0.00 0.00 89 1015.5
20260507082329 21 99 0.0 0.0 0.00 0.00 0.00 88 1015.5
20260507081822 21 99 0.0 0.0 0.00 0.00 0.00 88 1015.4
20260507081337 21 99 0.0 0.0 0.00 0.00 0.00 88 1015.5
20260507080831 21 99 0.0 0.0 0.00 0.00 0.00 88 1015.5
20260507080322 21 99 0.0 0.0 0.00 0.00 0.00 87 1015.5
20260507075831 21 99 0.0 0.0 0.00 0.00 0.00 87 1015.6
20260507075322 21 99 0.0 0.0 0.00 0.00 0.00 87 1015.7
20260507074846 21 99 0.0 0.0 0.00 0.00 0.00 87 1015.9
20260507074340 21 99 0.0 0.0 0.00 0.00 0.00 87 1015.7
20260507073832 21 99 0.0 0.0 0.00 0.00 0.00 87 1015.8
20260507073340 21 99 0.0 0.0 0.00 0.00 0.00 87 1015.8
20260507072824 21 99 0.0 0.0 0.00 0.00 0.00 87 1015.8
20260507072345 21 99 0.0 0.0 0.00 0.00 0.00 87 1015.8
20260507071829 21 99 0.0 0.0 0.00 0.00 0.00 87 1015.8
20260507071321 21 99 0.0 0.0 0.00 0.00 0.00 87 1015.7
20260507070856 21 99 0.0 0.0 0.00 0.00 0.00 87 1015.9
20260507070330 22 99 0.0 0.0 0.00 0.00 0.00 87 1015.9
20260507065843 22 99 0.0 0.0 0.00 0.00 0.00 87 1016.0
20260507065408 22 99 0.0 0.0 0.00 0.00 0.00 86 1016.2
20260507064820 22 99 0.0 0.0 0.00 0.00 0.00 86 1016.3
20260507064329 22 99 0.0 0.0 0.00 0.00 0.00 86 1016.2
20260507063820 22 99 0.0 0.0 0.00 0.00 0.00 85 1016.3
20260507063348 22 99 0.0 0.0 0.00 0.00 0.00 85 1016.4
20260507062828 22 99 0.0 0.0 0.00 0.00 0.00 85 1016.5
20260507062342 22 99 0.0 0.0 0.00 0.00 0.00 85 1016.5
20260507061833 22 99 0.0 0.0 0.00 0.00 0.00 85 1016.6
20260507061409 22 99 0.0 0.0 0.00 0.00 0.00 85 1016.5
20260507060832 22 99 0.0 0.0 0.00 0.00 0.00 85 1016.5
20260507060326 22 99 0.0 0.0 0.00 0.00 0.00 85 1016.5
20260507055837 22 99 0.0 0.0 0.00 0.00 0.00 85 1016.5
20260507055334 22 99 0.0 0.0 0.00 0.00 0.00 85 1016.6
20260507054822 22 99 0.0 0.0 0.00 0.00 0.00 84 1016.7
20260507054322 22 99 0.0 0.0 0.00 0.00 0.00 84 1016.7
20260507053845 22 99 0.0 0.0 0.00 0.00 0.00 84 1016.8
20260507053335 22 92 0.0 0.0 0.00 0.00 0.00 84 1016.9
20260507052835 22 92 0.0 0.0 0.00 0.00 0.00 84 1017.0
20260507052324 23 120 0.0 0.0 0.00 0.00 0.00 83 1017.1
20260507051826 23 120 0.0 0.0 0.00 0.00 0.00 83 1017.1
20260507051345 23 120 0.0 0.0 0.00 0.00 0.00 82 1017.1
20260507050835 23 120 0.0 0.0 0.00 0.00 0.00 82 1017.1
20260507050336 23 120 0.0 0.0 0.00 0.00 0.00 83 1017.1
20260507045830 23 120 0.0 0.0 0.00 0.00 0.00 83 1017.2
20260507045350 23 120 0.0 0.0 0.00 0.00 0.00 82 1017.2
20260507044903 23 120 0.0 0.0 0.00 0.00 0.00 83 1017.2
20260507044324 23 120 0.0 0.0 0.00 0.00 0.00 83 1017.1
20260507043835 23 120 0.0 0.0 0.00 0.00 0.00 82 1017.2
20260507043329 23 120 0.0 0.0 0.00 0.00 0.00 81 1017.2
20260507042848 24 120 0.0 0.0 0.00 0.00 0.00 81 1017.1
20260507042342 24 120 0.0 0.0 0.00 0.00 0.00 81 1017.1
20260507041826 24 120 0.0 0.0 0.00 0.00 0.00 81 1017.1
20260507041335 24 120 0.0 0.0 0.00 0.00 0.00 81 1017.2
20260507040828 24 109 0.0 0.0 0.00 0.00 0.00 81 1017.2
20260507040339 24 120 0.0 0.0 0.00 0.00 0.00 81 1017.3
20260507035822 24 113 0.0 0.0 0.00 0.00 0.00 81 1017.2
20260507035340 24 113 0.0 0.0 0.00 0.00 0.00 81 1017.2
20260507034830 24 113 0.0 0.0 0.00 0.00 0.00 81 1017.2
20260507034322 24 122 0.0 0.0 0.00 0.00 0.00 80 1017.2
20260507033836 24 124 0.0 0.0 0.00 0.00 0.00 80 1017.3
20260507033329 24 119 0.0 0.0 0.00 0.00 0.00 80 1017.5
20260507032822 25 119 0.0 0.0 0.00 0.00 0.00 80 1017.4
20260507032332 25 118 0.0 0.0 0.00 0.00 0.00 80 1017.4
20260507031823 25 120 0.0 0.0 0.00 0.00 0.00 80 1017.4
20260507031347 25 120 0.0 0.0 0.00 0.00 0.00 80 1017.5
20260507030820 25 120 0.0 0.0 0.00 0.00 0.00 80 1017.5
20260507030331 25 151 0.0 0.0 0.00 0.00 0.00 80 1017.7
20260507025823 25 148 0.0 0.0 0.00 0.00 0.00 80 1017.6
20260507025330 25 126 0.0 0.0 0.00 0.00 0.00 80 1017.5
20260507024821 25 132 0.0 3.2 0.00 0.00 0.00 79 1017.6
20260507024336 25 123 0.0 3.2 0.00 0.00 0.00 79 1017.6
20260507023849 25 139 1.6 3.2 0.00 0.00 0.00 79 1017.6
20260507023342 25 129 0.0 3.2 0.00 0.00 0.00 79 1017.6
20260507022850 25 120 0.0 4.8 0.00 0.00 0.00 79 1017.5
20260507022322 25 113 1.6 4.8 0.00 0.00 0.00 79 1017.4
20260507021836 25 122 3.2 6.4 0.00 0.00 0.00 79 1017.3
20260507021347 25 122 3.2 6.4 0.00 0.00 0.00 78 1017.4
20260507020857 25 126 3.2 4.8 0.00 0.00 0.00 78 1017.3
20260507020348 25 127 1.6 4.8 0.00 0.00 0.00 78 1017.3
20260507015848 25 120 1.6 4.8 0.00 0.00 0.00 78 1017.2
20260507015330 25 122 1.6 4.8 0.00 0.00 0.00 78 1017.3
20260507014825 25 115 0.0 4.8 0.00 0.00 0.00 78 1017.3
20260507014335 25 127 1.6 4.8 0.00 0.00 0.00 78 1017.3
20260507013829 25 74 1.6 4.8 0.00 0.00 0.00 78 1017.4
20260507013322 25 88 0.0 4.8 0.00 0.00 0.00 78 1017.3
20260507012837 25 120 1.6 4.8 0.00 0.00 0.00 77 1017.3
20260507012331 26 120 0.0 3.2 0.00 0.00 0.00 77 1017.4
20260507011836 26 105 1.6 4.8 0.00 0.00 0.00 77 1017.4
20260507011327 26 99 1.6 4.8 0.00 0.00 0.00 77 1017.4
20260507010346 26 122 0.0 4.8 0.00 0.00 0.00 77 1017.3
20260507005839 26 86 1.6 4.8 0.00 0.00 0.00 76 1017.3
20260507005332 26 136 1.6 4.8 0.00 0.00 0.00 77 1017.2
20260507004838 26 123 1.6 6.4 0.00 0.00 0.00 76 1017.2
20260507004331 26 114 3.2 8.0 0.00 0.00 0.00 75 1017.2
20260507003820 26 134 4.8 8.0 0.00 0.00 0.00 75 1017.2
20260507003342 26 128 0.0 4.8 0.00 0.00 0.00 75 1017.1
20260507002846 26 103 1.6 4.8 0.00 0.00 0.00 75 1017.1
20260507002333 26 115 3.2 8.0 0.00 0.00 0.00 74 1017.1
20260507001847 26 141 3.2 8.0 0.00 0.00 0.00 74 1017.1
20260507001320 26 112 4.8 8.0 0.00 0.00 0.00 73 1017.1
20260507000842 26 120 4.8 8.0 0.00 0.00 0.00 73 1017.0
20260507000336 26 148 4.8 8.0 0.00 0.00 0.00 73 1017.1
20260506235826 26 63 3.2 6.4 0.00 0.00 0.00 73 1017.1
20260506235321 27 114 1.6 9.7 0.00 0.00 0.00 73 1017.0
20260506234836 27 72 3.2 11.3 0.00 0.00 0.00 72 1017.0
20260506234349 27 113 6.4 11.3 0.00 0.00 0.00 71 1016.9
20260506233823 27 130 3.2 11.3 0.00 0.00 0.00 70 1017.0
20260506233333 27 153 4.8 12.9 0.00 0.00 0.00 71 1017.0
20260506232827 27 101 4.8 11.3 0.00 0.00 0.00 70 1017.0
20260506232340 27 72 6.4 11.3 0.00 0.00 0.00 69 1017.0
20260506231844 27 56 6.4 11.3 0.00 0.00 0.00 68 1017.1
20260506231337 27 91 4.8 9.7 0.00 0.00 0.00 68 1017.1
20260506230826 27 69 4.8 9.7 0.00 0.00 0.00 68 1017.1
20260506230320 28 120 4.8 11.3 0.00 0.00 0.00 67 1017.2
20260506225834 28 123 4.8 12.9 0.00 0.00 0.00 67 1017.1
20260506225330 28 88 4.8 11.3 0.00 0.00 0.00 66 1017.1
20260506224843 28 130 6.4 14.5 0.00 0.00 0.00 65 1017.0
20260506224352 28 86 6.4 14.5 0.00 0.00 0.00 64 1017.0
20260506223825 28 122 6.4 12.9 0.00 0.00 0.00 64 1016.9
20260506223347 28 89 6.4 14.5 0.00 0.00 0.00 63 1016.8
20260506222832 28 39 6.4 14.5 0.00 0.00 0.00 62 1016.8
20260506222344 29 74 6.4 14.5 0.00 0.00 0.00 59 1016.7
20260506221832 29 51 6.4 14.5 0.00 0.00 0.00 61 1016.7
20260506221324 29 127 6.4 11.3 0.00 0.00 0.00 57 1016.7
20260506220824 29 115 4.8 9.7 0.00 0.00 0.00 57 1016.6
20260506220342 29 62 4.8 12.9 0.00 0.00 0.00 59 1016.6
20260506215825 29 150 4.8 12.9 0.00 0.00 0.00 58 1016.7
20260506215330 29 137 6.4 14.5 0.00 0.00 0.00 57 1016.6
20260506214851 29 87 9.7 14.5 0.00 0.00 0.00 56 1016.6
20260506214320 29 110 4.8 11.3 0.00 0.00 0.00 57 1016.6
20260506213843 29 83 6.4 11.3 0.00 0.00 0.00 57 1016.6
20260506213335 29 30 4.8 12.9 0.00 0.00 0.00 57 1016.6
20260506212836 29 146 6.4 12.9 0.00 0.00 0.00 57 1016.5
20260506212328 29 112 6.4 12.9 0.00 0.00 0.00 57 1016.6
20260506211904 29 125 6.4 11.3 0.00 0.00 0.00 60 1016.6
20260506211327 29 130 6.4 14.5 0.00 0.00 0.00 60 1016.6
20260506210842 29 53 9.7 14.5 0.00 0.00 0.00 59 1016.6
20260506210327 29 46 4.8 14.5 0.00 0.00 0.00 60 1016.5
20260506205847 29 118 6.4 12.9 0.00 0.00 0.00 59 1016.5
20260506205342 29 110 8.0 12.9 0.00 0.00 0.00 60 1016.6
20260506204846 30 51 6.4 11.3 0.00 0.00 0.00 58 1016.6
20260506204327 30 49 3.2 11.3 0.00 0.00 0.00 58 1016.6
20260506203822 29 116 6.4 11.3 0.00 0.00 0.00 61 1016.6
20260506203324 30 115 4.8 12.9 0.00 0.00 0.00 61 1016.6
20260506202846 30 83 6.4 12.9 0.00 0.00 0.00 60 1016.6
20260506202342 30 144 6.4 12.9 0.00 0.00 0.00 59 1016.7
20260506201839 30 345 4.8 14.5 0.00 0.00 0.00 59 1016.8
20260506201329 30 142 4.8 14.5 0.00 0.00 0.00 58 1016.8
20260506200841 30 90 8.0 12.9 0.00 0.00 0.00 57 1016.8
20260506200321 30 108 8.0 14.5 0.00 0.00 0.00 63 1016.9
20260506195845 30 122 9.7 14.5 0.00 0.00 0.00 63 1016.9
20260506195320 30 111 8.0 12.9 0.00 0.00 0.00 62 1016.9
20260506194831 30 113 3.2 12.9 0.00 0.00 0.00 65 1016.9
20260506194324 30 63 6.4 16.1 0.00 0.00 0.00 60 1016.9
20260506193846 30 136 6.4 16.1 0.00 0.00 0.00 62 1017.0
20260506193342 30 132 8.0 14.5 0.00 0.00 0.00 62 1017.0
20260506192835 30 117 6.4 14.5 0.00 0.00 0.00 62 1017.1
20260506192330 30 123 6.4 12.9 0.00 0.00 0.00 64 1017.2
20260506191831 30 155 9.7 12.9 0.00 0.00 0.00 63 1017.1
20260506191323 30 147 6.4 14.5 0.00 0.00 0.00 66 1017.2
20260506190836 30 137 6.4 12.9 0.00 0.00 0.00 62 1017.2
20260506190330 30 60 4.8 9.7 0.00 0.00 0.00 62 1017.3
20260506185824 30 168 3.2 11.3 0.00 0.00 0.00 61 1017.3
20260506185334 30 140 3.2 11.3 0.00 0.00 0.00 62 1017.4
20260506184829 30 121 4.8 12.9 0.00 0.00 0.00 62 1017.3
20260506184344 30 150 8.0 12.9 0.00 0.00 0.00 62 1017.4
20260506183830 30 10 6.4 12.9 0.00 0.00 0.00 60 1017.4
20260506183325 30 128 8.0 12.9 0.00 0.00 0.00 59 1017.5
20260506182835 30 136 0.0 11.3 0.00 0.00 0.00 62 1017.6
20260506182329 30 110 4.8 11.3 0.00 0.00 0.00 62 1017.6
20260506181842 30 122 4.8 9.7 0.00 0.00 0.00 61 1017.6
20260506181332 30 65 3.2 9.7 0.00 0.00 0.00 62 1017.6
20260506180825 30 130 6.4 11.3 0.00 0.00 0.00 62 1017.6
20260506180334 30 139 3.2 11.3 0.00 0.00 0.00 62 1017.6
20260506175826 30 40 4.8 9.7 0.00 0.00 0.00 65 1017.7
20260506175341 30 120 6.4 17.7 0.00 0.00 0.00 65 1017.7
20260506174834 30 117 8.0 17.7 0.00 0.00 0.00 64 1017.8
20260506174328 30 117 4.8 16.1 0.00 0.00 0.00 64 1017.8
20260506173820 30 106 6.4 16.1 0.00 0.00 0.00 65 1017.9
20260506173328 30 60 4.8 11.3 0.00 0.00 0.00 66 1017.9
20260506172840 30 136 3.2 12.9 0.00 0.00 0.00 66 1017.9
20260506172319 30 166 4.8 14.5 0.00 0.00 0.00 64 1018.0
20260506171821 30 129 8.0 14.5 0.00 0.00 0.00 64 1017.9
20260506171332 30 68 6.4 12.9 0.00 0.00 0.00 63 1017.8
20260506170825 30 129 6.4 9.7 0.00 0.00 0.00 65 1017.9
20260506170320 30 60 1.6 11.3 0.00 0.00 0.00 67 1017.9
20260506165834 30 120 6.4 11.3 0.00 0.00 0.00 66 1018.0
20260506165328 30 86 4.8 12.9 0.00 0.00 0.00 67 1018.1
20260506164821 30 138 3.2 12.9 0.00 0.00 0.00 69 1018.2
20260506164331 30 111 1.6 11.3 0.00 0.00 0.00 70 1018.2
20260506163824 30 38 3.2 11.3 0.00 0.00 0.00 70 1018.3
20260506163336 29 39 3.2 9.7 0.00 0.00 0.00 70 1018.3
20260506162850 29 71 4.8 12.9 0.00 0.00 0.00 68 1018.3
20260506162342 29 134 6.4 11.3 0.00 0.00 0.00 69 1018.3
20260506161823 30 77 6.4 11.3 0.00 0.00 0.00 71 1018.4
20260506161333 29 93 0.0 8.0 0.00 0.00 0.00 72 1018.4
20260506160834 29 140 3.2 11.3 0.00 0.00 0.00 72 1018.5
20260506160324 29 70 6.4 11.3 0.00 0.00 0.00 72 1018.4
20260506155837 28 122 3.2 12.9 0.00 0.00 0.00 74 1018.5
20260506155327 29 46 6.4 12.9 0.00 0.00 0.00 72 1018.7
20260506154818 28 115 4.8 11.3 0.00 0.00 0.00 74 1018.5
20260506154351 29 66 3.2 11.3 0.00 0.00 0.00 73 1018.4
20260506153820 28 77 3.2 11.3 0.00 0.00 0.00 74 1018.3
20260506153335 28 77 6.4 9.7 0.00 0.00 0.00 74 1018.4
20260506152835 28 141 0.0 11.3 0.00 0.00 0.00 74 1018.3
20260506152331 28 120 4.8 11.3 0.00 0.00 0.00 76 1018.3
20260506151841 28 148 3.2 12.9 0.00 0.00 0.00 75 1018.4
20260506151347 28 87 6.4 12.9 0.00 0.00 0.00 75 1018.5
20260506150855 28 146 1.6 12.9 0.00 0.00 0.00 76 1018.5
20260506150327 28 119 4.8 9.7 0.00 0.00 0.00 77 1018.4
20260506145848 28 131 4.8 11.3 0.00 0.00 0.00 76 1018.3
20260506145339 28 127 6.4 11.3 0.00 0.00 0.00 77 1018.3
20260506144832 28 136 4.8 8.0 0.00 0.00 0.00 77 1018.3
20260506144324 28 120 3.2 9.7 0.00 0.00 0.00 78 1018.3
20260506143833 28 108 3.2 11.3 0.00 0.00 0.00 77 1018.2
20260506143409 28 135 3.2 11.3 0.00 0.00 0.00 77 1018.2
20260506142841 28 124 4.8 9.7 0.00 0.00 0.00 78 1018.1
20260506142335 28 105 6.4 11.3 0.00 0.00 0.00 78 1018.1
20260506141833 27 98 6.4 11.3 0.00 0.00 0.00 78 1018.0
20260506141346 27 134 6.4 11.3 0.00 0.00 0.00 79 1018.0
20260506140824 27 133 4.8 9.7 0.00 0.00 0.00 78 1018.0
20260506140345 27 84 4.8 11.3 0.00 0.00 0.00 79 1018.0
20260506135836 27 66 4.8 9.7 0.00 0.00 0.00 79 1018.0
20260506135328 27 135 4.8 8.0 0.00 0.00 0.00 79 1018.0
20260506134909 27 51 4.8 11.3 0.00 0.00 0.00 79 1018.0
20260506134406 27 100 3.2 11.3 0.00 0.00 0.00 80 1017.9
20260506133859 27 119 4.8 11.3 0.00 0.00 0.00 79 1017.9
20260506133321 27 61 4.8 9.7 0.00 0.00 0.00 80 1017.8
20260506132833 27 115 6.4 14.5 0.00 0.00 0.00 80 1017.8
20260506132353 27 136 6.4 14.5 0.00 0.00 0.00 80 1017.9
20260506131846 27 124 3.2 12.9 0.00 0.00 0.00 80 1018.0
20260506131338 27 75 4.8 9.7 0.00 0.00 0.00 80 1017.7
20260506130822 27 68 4.8 9.7 0.00 0.00 0.00 80 1017.6
20260506130351 26 123 3.2 9.7 0.00 0.00 0.00 81 1017.5
20260506125822 26 136 3.2 11.3 0.00 0.00 0.00 81 1017.6
20260506125321 26 139 3.2 11.3 0.00 0.00 0.00 81 1017.4
20260506124831 26 115 3.2 11.3 0.00 0.00 0.00 82 1017.5
20260506124357 26 106 4.8 11.3 0.00 0.00 0.00 82 1017.5
20260506123830 25 66 4.8 8.0 0.00 0.00 0.00 82 1017.5
20260506123321 25 141 3.2 11.3 0.00 0.00 0.00 82 1017.6
20260506122842 25 95 3.2 11.3 0.00 0.00 0.00 83 1017.5
20260506122352 25 143 1.6 8.0 0.00 0.00 0.00 83 1017.6
20260506121830 25 110 1.6 4.8 0.00 0.00 0.00 84 1017.5
20260506121346 25 109 0.0 3.2 0.00 0.00 0.00 84 1017.5
20260506120831 25 132 1.6 3.2 0.00 0.00 0.00 84 1017.5
20260506120342 25 94 0.0 1.6 0.00 0.00 0.00 84 1017.4
20260506115857 25 128 1.6 3.2 0.00 0.00 0.00 84 1017.6
20260506115330 25 77 0.0 3.2 0.00 0.00 0.00 84 1017.5
20260506114821 25 96 0.0 1.6 0.00 0.00 0.00 85 1017.5
20260506114334 25 134 0.0 1.6 0.00 0.00 0.00 86 1017.4
20260506113844 25 56 0.0 1.6 0.00 0.00 0.00 87 1017.3
20260506113334 24 43 0.0 0.0 0.00 0.00 0.00 88 1017.1
20260506112827 24 42 0.0 0.0 0.00 0.00 0.00 89 1017.1
20260506112348 23 42 0.0 0.0 0.00 0.00 0.00 90 1017.1
20260506111832 23 42 0.0 0.0 0.00 0.00 0.00 90 1017.1
20260506111323 23 42 0.0 0.0 0.00 0.00 0.00 90 1017.0
20260506110833 22 42 0.0 0.0 0.00 0.00 0.00 90 1016.7
20260506110326 22 42 0.0 0.0 0.00 0.00 0.00 90 1016.6
20260506105828 22 42 0.0 0.0 0.00 0.00 0.00 90 1016.6
20260506105328 22 42 0.0 0.0 0.00 0.00 0.00 90 1016.6
20260506104843 22 42 0.0 0.0 0.00 0.00 0.00 90 1016.6
20260506104351 22 42 0.0 0.0 0.00 0.00 0.00 90 1016.4
20260506103853 22 42 0.0 0.0 0.00 0.00 0.00 90 1016.4
20260506103323 22 42 0.0 0.0 0.00 0.00 0.00 90 1016.5
20260506102844 22 42 0.0 0.0 0.00 0.00 0.00 90 1016.5
20260506102337 22 42 0.0 0.0 0.00 0.00 0.00 89 1016.6
20260506101835 22 58 0.0 0.0 0.00 0.00 0.00 89 1016.6
20260506101329 22 58 0.0 0.0 0.00 0.00 0.00 89 1016.5
20260506100821 22 58 0.0 0.0 0.00 0.00 0.00 89 1016.5
20260506100334 22 58 0.0 0.0 0.00 0.00 0.00 89 1016.5
20260506095845 22 58 0.0 0.0 0.00 0.00 0.00 89 1016.4
20260506095332 22 58 0.0 0.0 0.00 0.00 0.00 88 1016.4
20260506094918 22 58 0.0 0.0 0.00 0.00 0.00 88 1016.3
20260506094404 22 58 0.0 0.0 0.00 0.00 0.00 88 1016.3
20260506093829 22 58 0.0 0.0 0.00 0.00 0.00 88 1016.3
20260506093343 23 58 0.0 0.0 0.00 0.00 0.00 88 1016.2
20260506092827 23 58 0.0 0.0 0.00 0.00 0.00 89 1016.1
20260506092326 22 58 0.0 0.0 0.00 0.00 0.00 88 1016.2
20260506091838 22 58 0.0 0.0 0.00 0.00 0.00 88 1016.2
20260506091330 22 58 0.0 0.0 0.00 0.00 0.00 88 1016.2